JILIN-01 GAOFEN 4A (52388 NORAD) Tracking and Keplerian Element Data

This shows tracking and keplerian element data for the satellite.

Feedback or suggestion? Click here.




ElementValue
Catalog52388
NameJILIN-01 GAOFEN 4A
Epoch Orbit707
Epoch Day167.01030385
Epoch Year2022
RAAN254.359
Inclination97.5414
Eccentricity0.0014981
Argument of Perigee121.1177
Mean Anonmoly359.1437
Mean Motion15.09676511
Decay Rate3.546E-05
L11 52388U 22046A 22167.01030385 .00003546 00000+0 22357-3 0 9997
L22 52388 97.5414 254.3590 0014981 121.1177 359.1437 15.09676511 7076

Live tracking and technical data element details for JILIN-01 GAOFEN 4A (NORAD 52388). JILIN-01 GAOFEN 4A can be tracked NOW for your location showing map with azimuth and elevation plus other details from your city location.

Track the satellite on the map from your city or location and see movement details for azimuth, elevation, latitude, longitude, range, height, and movement on the map or in text.







IsCatalogInMostPopularTable: catalog: 52388, numindb: 4
Update: records affected: 1



GetName: 52388 JILIN-01 GAOFEN 4A

Hit Count: updated at: Mon, 27 Jun 2022 06:29:30 GMT